Weather History for Winona, MN

Change the Weather History Date:

Sunday, March 2, 2014

  Actual Average Record
Temperature  
Mean Temperature -3 °F -  
Max Temperature 3 °F 38 °F 61 °F (1992)
Min Temperature -9 °F 18 °F -9 °F (2014)
Degree Days  
Heating Degree Days 68    
Moisture  
Dew Point -17 °F    
Average Humidity 49    
Maximum Humidity 71    
Minimum Humidity 39    
Precipitation  
Precipitation 0.00 in - - ()
Sea Level Pressure  
Sea Level Pressure 30.53 in    
Wind  
Wind Speed 8 mph (NW)    
Max Wind Speed 14 mph    
Max Gust Speed 20 mph    
Visibility 10 miles    
Events      
Averages and records for this station are not official NWS values.
T = Trace of Precipitation, MM = Missing Value Source: NWS Daily Summary

Daily Weather History Graph

Daily Weather History Graph

Search for Another Location

Airport:

Trip Planner

Search our weather history database for the weather conditions in past years. The results will help you decide how hot, cold, wet, or windy it might be!

Date:

Astronomy

Mar. 02, 2014 Rise Set
Actual Time 6:42 AM CST 5:56 PM CST
Civil Twilight 6:13 AM CST 6:25 PM CST
Nautical Twilight 5:39 AM CST 6:58 PM CST
Astronomical Twilight 5:06 AM CST 7:32 PM CST
Moon 7:09 AM CST (3/2) 7:58 PM CST (3/2)
Length of Visible Light 12h 12m
Length of Day
11h 14m
Waxing Crescent, 3% of the Moon is Illuminated
Mar 2
Waxing Crescent
Mar 8
First Quarter
Mar 16
Full
Mar 23
Last Quarter
Mar 30
New

Hourly Weather History & Observations

Time (CST) Temp. Windchill Dew Point Humidity Pressure Visibility Wind Dir Wind Speed Gust Speed Precip Events Conditions
12:19 AM -0.4 °F -14.7 °F -16.6 °F 46% 30.51 in 10.0 mi NW 8.1 mph - N/A   Clear
12:39 AM -0.4 °F -13.4 °F -16.6 °F 46% 30.51 in 10.0 mi NNW 6.9 mph - N/A   Clear
12:59 AM -0.4 °F -13.4 °F -16.6 °F 46% 30.51 in 10.0 mi NW 6.9 mph - N/A   Clear
1:19 AM -0.4 °F -14.7 °F -14.8 °F 51% 30.51 in 10.0 mi NW 8.1 mph - N/A   Clear
1:39 AM -0.4 °F -13.4 °F -14.8 °F 51% 30.52 in 10.0 mi NW 6.9 mph - N/A   Clear
1:59 AM -0.4 °F -14.7 °F -14.8 °F 51% 30.50 in 10.0 mi NW 8.1 mph - N/A   Clear
2:19 AM -0.4 °F -15.7 °F -16.6 °F 46% 30.50 in 10.0 mi NW 9.2 mph - N/A   Clear
2:39 AM -2.2 °F -15.6 °F -16.6 °F 50% 30.50 in 10.0 mi NW 6.9 mph - N/A   Clear
2:59 AM -2.2 °F -16.8 °F -16.6 °F 50% 30.51 in 10.0 mi NW 8.1 mph - N/A   Clear
3:19 AM -2.2 °F -18.0 °F -16.6 °F 50% 30.50 in 10.0 mi NW 9.2 mph - N/A   Clear
3:39 AM -2.2 °F -16.8 °F -16.6 °F 50% 30.50 in 10.0 mi NNW 8.1 mph - N/A   Clear
3:59 AM -4.0 °F -19.0 °F -18.4 °F 50% 30.51 in 10.0 mi NW 8.1 mph - N/A   Clear
4:19 AM -5.8 °F -19.9 °F -18.4 °F 55% 30.51 in 10.0 mi NW 6.9 mph - N/A   Clear
4:39 AM -4.0 °F -21.2 °F -18.4 °F 50% 30.52 in 10.0 mi NW 10.4 mph - N/A   Clear
4:59 AM -5.8 °F -23.4 °F -18.4 °F 55% 30.52 in 10.0 mi NW 10.4 mph - N/A   Clear
5:19 AM -5.8 °F -23.4 °F -18.4 °F 55% 30.53 in 10.0 mi NW 10.4 mph - N/A   Clear
5:39 AM -5.8 °F -23.4 °F -20.2 °F 50% 30.53 in 10.0 mi NNW 10.4 mph - N/A   Clear
5:59 AM -5.8 °F -22.4 °F -18.4 °F 55% 30.53 in 10.0 mi NNW 9.2 mph - N/A   Clear
6:19 AM -5.8 °F -24.4 °F -20.2 °F 50% 30.52 in 10.0 mi NNW 11.5 mph - N/A   Clear
6:39 AM -7.6 °F -27.5 °F -22.0 °F 50% 30.54 in 10.0 mi NW 12.7 mph - N/A   Clear
6:59 AM -7.6 °F -27.5 °F -22.0 °F 50% 30.55 in 10.0 mi NW 12.7 mph - N/A   Clear
7:19 AM -7.6 °F -24.6 °F -22.0 °F 50% 30.55 in 10.0 mi NW 9.2 mph - N/A   Clear
7:39 AM -7.6 °F -27.5 °F -23.8 °F 45% 30.55 in 10.0 mi NNW 12.7 mph 16.1 mph N/A   Clear
7:59 AM -7.6 °F -27.5 °F -22.0 °F 50% 30.56 in 10.0 mi NNW 12.7 mph 19.6 mph N/A   Clear
8:19 AM -5.8 °F -25.2 °F -22.0 °F 46% 30.55 in 10.0 mi NNW 12.7 mph 17.3 mph N/A   Clear
8:39 AM -5.8 °F -26.0 °F -20.2 °F 50% 30.56 in 10.0 mi NNW 13.8 mph - N/A   Clear
8:59 AM -5.8 °F -26.0 °F -20.2 °F 50% 30.57 in 10.0 mi NNW 13.8 mph - N/A   Clear
9:19 AM -5.8 °F -25.2 °F -22.0 °F 46% 30.56 in 10.0 mi NW 12.7 mph - N/A   Clear
9:39 AM -5.8 °F -22.4 °F -20.2 °F 50% 30.56 in 10.0 mi NNW 9.2 mph - N/A   Clear
9:59 AM -4.0 °F -20.2 °F -20.2 °F 46% 30.56 in 10.0 mi NW 9.2 mph - N/A   Clear
10:19 AM -2.2 °F -15.6 °F -18.4 °F 46% 30.57 in 10.0 mi NW 6.9 mph - N/A   Clear
10:39 AM -2.2 °F -12.5 °F -20.2 °F 42% 30.56 in 10.0 mi NNW 4.6 mph - N/A   Clear
10:59 AM -0.4 °F -8.3 °F -20.2 °F 39% 30.56 in 10.0 mi NNW 3.5 mph - N/A   Clear
11:19 AM -0.4 °F -13.4 °F -18.4 °F 43% 30.56 in 10.0 mi NNW 6.9 mph - N/A   Clear
11:39 AM -0.4 °F - -20.2 °F 39% 30.57 in 10.0 mi Calm Calm - N/A   Clear
11:59 AM -0.4 °F -13.4 °F -18.4 °F 43% 30.57 in 10.0 mi NNE 6.9 mph - N/A   Clear
12:19 PM 1.4 °F -8.3 °F -18.4 °F 39% 30.56 in 10.0 mi North 4.6 mph - N/A   Clear
12:39 PM 1.4 °F -9.9 °F -18.4 °F 39% 30.56 in 10.0 mi WNW 5.8 mph - N/A   Clear
12:59 PM 1.4 °F -9.9 °F -16.6 °F 43% 30.55 in 10.0 mi WNW 5.8 mph - N/A   Clear
1:19 PM 3.2 °F -9.1 °F -16.6 °F 39% 30.53 in 10.0 mi NW 6.9 mph - N/A   Clear
1:39 PM 3.2 °F -10.3 °F -16.6 °F 39% 30.51 in 10.0 mi North 8.1 mph - N/A   Clear
1:59 PM 3.2 °F -12.2 °F -16.6 °F 39% 30.50 in 10.0 mi NNW 10.4 mph - N/A   Clear
2:19 PM 3.2 °F -12.2 °F -16.6 °F 39% 30.51 in 10.0 mi North 10.4 mph 16.1 mph N/A   Clear
2:39 PM 3.2 °F -12.2 °F -16.6 °F 39% 30.52 in 10.0 mi NW 10.4 mph - N/A   Clear
2:59 PM 3.2 °F -7.8 °F -16.6 °F 39% 30.50 in 10.0 mi NNW 5.8 mph - N/A   Clear
3:19 PM 3.2 °F -6.2 °F -14.8 °F 43% 30.50 in 10.0 mi North 4.6 mph - N/A   Clear
3:39 PM 3.2 °F -9.1 °F -14.8 °F 43% 30.50 in 10.0 mi NNW 6.9 mph - N/A   Clear
3:59 PM 3.2 °F -11.3 °F -14.8 °F 43% 30.50 in 10.0 mi NW 9.2 mph - N/A   Clear
4:19 PM 3.2 °F -10.3 °F -14.8 °F 43% 30.51 in 10.0 mi WNW 8.1 mph - N/A   Clear
4:39 PM 3.2 °F -9.1 °F -14.8 °F 43% 30.51 in 10.0 mi WNW 6.9 mph - N/A   Clear
4:59 PM 3.2 °F -9.1 °F -14.8 °F 43% 30.51 in 10.0 mi WNW 6.9 mph - N/A   Clear
5:19 PM 1.4 °F -11.3 °F -14.8 °F 47% 30.51 in 10.0 mi NW 6.9 mph - N/A   Clear
5:39 PM 1.4 °F -6.2 °F -14.8 °F 47% 30.51 in 10.0 mi WNW 3.5 mph - N/A   Clear
5:59 PM 1.4 °F -8.3 °F -14.8 °F 47% 30.51 in 10.0 mi WNW 4.6 mph - N/A   Clear
6:20 PM -0.4 °F -8.3 °F -14.8 °F 51% 30.50 in 10.0 mi WNW 3.5 mph - N/A   Clear
6:39 PM -0.4 °F -10.4 °F -14.8 °F 51% 30.50 in 10.0 mi WNW 4.6 mph - N/A   Clear
6:59 PM -0.4 °F -12.0 °F -14.8 °F 51% 30.50 in 10.0 mi NW 5.8 mph - N/A   Clear
7:20 PM -2.2 °F -15.6 °F -14.8 °F 55% 30.51 in 10.0 mi NW 6.9 mph - N/A   Clear
7:39 PM -0.4 °F -13.4 °F -14.8 °F 51% 30.50 in 10.0 mi WNW 6.9 mph - N/A   Clear
7:59 PM -0.4 °F -12.0 °F -13.0 °F 55% 30.50 in 10.0 mi WNW 5.8 mph - N/A   Clear
8:20 PM -0.4 °F -10.4 °F -14.8 °F 51% 30.50 in 10.0 mi WNW 4.6 mph - N/A   Clear
8:39 PM -2.2 °F -12.5 °F -14.8 °F 55% 30.50 in 10.0 mi NW 4.6 mph - N/A   Clear
8:59 PM -2.2 °F - -13.0 °F 60% 30.50 in 10.0 mi Calm Calm - N/A   Clear
9:20 PM -4.0 °F -14.6 °F -14.8 °F 60% 30.51 in 10.0 mi NW 4.6 mph - N/A   Clear
9:39 PM -4.0 °F -12.4 °F -14.8 °F 60% 30.52 in 10.0 mi WNW 3.5 mph - N/A   Clear
9:59 PM -5.8 °F -14.5 °F -14.8 °F 65% 30.53 in 10.0 mi WNW 3.5 mph - N/A   Clear
10:20 PM -7.6 °F - -16.6 °F 65% 30.54 in 10.0 mi Calm Calm - N/A   Clear
10:39 PM -7.6 °F - -16.6 °F 65% 30.53 in 10.0 mi Calm Calm - N/A   Clear
10:59 PM -7.6 °F - -16.6 °F 65% 30.53 in 10.0 mi Calm Calm - N/A   Clear
11:20 PM -7.6 °F -18.8 °F -16.6 °F 65% 30.54 in 10.0 mi WNW 4.6 mph - N/A   Clear
11:39 PM -9.4 °F - -16.6 °F 71% 30.54 in 10.0 mi Calm Calm - N/A   Clear
11:59 PM -9.4 °F -20.9 °F -16.6 °F 71% 30.55 in 10.0 mi NW 4.6 mph - N/A   Clear